Preview of NWS' New Version of Forecast
This preview is not operational and should not be used for support decisions.
Latest weather observations around

Emporia, Emporia Municipal Airport (KEMP)

Using English Units (Switch to International System of Units)
Date/ Time (CDT) Wind (mph) Vis. (mi) Weather Sky Cond. Temp (°F) Rel. Humidity Wind Chill (°F) Heat Index (°F) Pressure Precip. (in)
Air Dwpt 6 hour Altimeter (inHg) Sea level (inHg) 1 hr 3 hr 6 hr
Max Min
Mar 26 14:53 SSE 10 10 Mostly Clear FEW050 63 40     43%     30.3 30.32      
Mar 26 13:53 SSE 9 10 Clear CLR 61 40     46%     30.33 30.35      
Mar 26 11:53 S 6 10 Partly Cloudy SCT060 56 42     60%     30.38 30.4      
Notice The following observation data may not be complete
Mar 26 10:53 SSE 7   Mostly Clear FEW065          %     30.39        
Mar 26 09:53 SSE 5 4 Fog/Mist FEW065 45 45     100% 43   30.39 30.42      
Mar 26 09:44 S 6 3 Fog/Mist SCT065 45 45     100% 42   30.39        
Mar 26 09:18 SE 3 2 Fog/Mist CLR 42 42     100% 40   30.39        
Mar 26 09:02 Calm 1.75 Fog/Mist FEW070 40 40     100%     30.39        
Mar 26 08:53 Calm 1.25 Fog/Mist FEW070 39 39     100%     30.38 30.41      
Mar 26 08:25 Calm 1 Fog/Mist BKN090 38 38     100%     30.38        
Mar 26 07:53 Calm 0.25 Fog FEW011 OVC090 33 33     100%     30.37 30.39      
Mar 26 07:49 E 3 0.25 Fog FEW009 OVC090 34 34     100% 31   30.36        
Mar 26 07:31 Calm 0.25 Fog BKN005 OVC090 32 32     100%     30.35        
Mar 26 07:22 NNW 3 0.25 Fog VV004 32 32     100% 29   30.36        
Mar 26 06:53 Calm 0.25 Fog VV009 33 33     100%     30.35 30.37      
Mar 26 06:20 Calm 0.25 Fog BKN012 OVC095 34 34     100%     30.35        
Mar 26 05:53 Calm 0.5 Fog FEW011 BKN095 36 36     100%     30.34 30.36      
Mar 26 05:23 WNW 5 0.75 Fog/Mist VV012 35 35     100% 31   30.33        
Mar 26 05:17 WNW 3 1.25 Fog/Mist FEW011 36 36     100% 33   30.33        
Mar 26 05:02 Calm 1.5 Fog/Mist SCT011 36 36     100%     30.33        
Mar 26 04:53 WNW 3 0.25 Fog VV011 35 35     100% 32   30.33 30.35      
Mar 26 04:12 NW 5 0.5 Fog VV012 37 37     100% 33   30.34        
Mar 26 04:05 NW 3 1 Fog/Mist VV012 37 37     100% 35   30.34        
Mar 26 03:58 NW 3 1.25 Fog/Mist CLR 37 37     100% 35   30.34        
Mar 26 03:53 NW 3 0.75 Fog/Mist CLR 36 36     100% 33   30.34 30.36      
Mar 26 03:46 NW 5 0.75 Fog/Mist CLR 36 36     100% 32   30.34        
Mar 26 03:37 WNW 5 1 Fog/Mist CLR 37 37     100% 33   30.34        
Mar 26 02:53 WNW 3 1.5 Fog/Mist FEW120 38 38     100% 36   30.34 30.36      
Mar 26 02:49 WNW 3 1.75 Fog/Mist CLR 39 39     100% 37   30.34        
Mar 26 02:42 Calm 3 Fog/Mist CLR 40 40     100%     30.34        
Mar 26 02:36 Calm 1.75 Fog/Mist CLR 38 38     100%     30.34        
Mar 26 02:29 Calm 2 Fog/Mist CLR 38 38     100%     30.33        
Mar 26 02:17 Calm 3 Fog/Mist CLR 40 40     100%     30.33        
Mar 26 02:07 NW 3 1.75 Fog/Mist CLR 39 39     100% 37   30.34        
Mar 26 01:53 NW 3 3 Fog/Mist CLR 40 40     100% 38   30.34 30.36      
Mar 26 01:37 Calm 3 Fog/Mist CLR 40 40     100%     30.34        
Mar 26 01:20 Calm 2.5 Fog/Mist CLR 38 38     100%     30.34        
Mar 26 00:53 Calm 3 Fog/Mist CLR 38 38     100%     30.34 30.35      
Mar 25 23:53 S 3 7 Clear CLR 43 41     93% 41   30.34 30.35      
Mar 25 22:53 SSW 5 7 Clear CLR 42 40     92% 39   30.33 30.35      
Mar 25 21:53 SSE 5 8 Clear CLR 45 42     90% 43   30.32 30.33      
Mar 25 20:53 ESE 6 9 Clear CLR 46 41     82% 43   30.3 30.32      
Mar 25 19:53 Calm 9 Clear CLR 50 42     74%     30.29 30.3      
Mar 25 18:53 E 5 10 Clear CLR 54 42     64%     30.28 30.29      
Mar 25 17:53 NE 5 10 Mostly Clear FEW033 54 42     64%     30.27 30.29      
Mar 25 17:33 ENE 6 10 Mostly Cloudy BKN031 56 42     60%     30.27        
Mar 25 17:24 6 10 Mostly Cloudy BKN029 56 43     62%     30.27        
Mar 25 17:08 6 10 Cloudy OVC030 55 43     64%     30.27        
Mar 25 16:53 6 10 Mostly Cloudy BKN029 54 43     66%     30.27 30.28      
Mar 25 15:53 NNE 9 8 Cloudy SCT020 OVC025 54 44     69%     30.28 30.29      
Mar 25 14:53 N 8 8 Cloudy OVC020 51 43     74%     30.29 30.3      
Mar 25 13:53 N 13 8 Cloudy OVC019 51 43     74%     30.29 30.3      
Mar 25 12:53 N 9 7 Cloudy OVC015 50 43     77%     30.3 30.31      
Mar 25 12:01 N 10 6 Fog/Mist OVC010 49 45     86% 45   30.29        
Mar 25 11:53 N 13 6 Haze OVC009 49 44     83% 44   30.29 30.3      
Mar 25 10:53 N 10 5 Fog/Mist OVC008 47 45     93% 42   30.27 30.29      
Mar 25 10:31 N 13 4 Fog/Mist BKN008 OVC012 47 45     93% 41   30.26        
Mar 25 09:53 N 8 6 Fog/Mist OVC010 48 45     89% 44   30.25 30.27      
Mar 25 09:13 N 8 4 Fog/Mist BKN009 OVC029 47 45     93% 43   30.24        
Mar 25 08:53 NNW 11 4 Fog/Mist SCT009 BKN024 OVC029 47 45     93% 42   30.23 30.24      
Mar 25 08:16 N 11 3 Fog/Mist SCT008 OVC020 46 45     96% 41   30.22        
Mar 25 07:53 N 13 2.5 Fog/Mist OVC007 46 45     96% 40   30.21 30.22      
Mar 25 06:53 N 9 4 Clear   47 45     93% 43   30.19 30.2      
Mar 25 05:53 NNW 9 4 Fog/Mist BKN009 OVC029 47 45     93% 43   30.17 30.18      
Mar 25 05:16 NNW 9 4 Fog/Mist BKN009 OVC027 47 45     93% 43   30.16        
Mar 25 04:53 NNW 8 4 Fog/Mist OVC022 47 45     93% 43   30.16 30.16      
Mar 25 04:33 NNW 7 4 Fog/Mist SCT009 OVC022 47 46     97% 44   30.15        
Mar 25 04:22 NNW 8 4 Fog/Mist BKN009 OVC022 47 46     97% 43   30.15        
Mar 25 03:53 N 11 4 Fog/Mist OVC012 48 45     89% 43   30.15 30.15      
Mar 25 02:53 N 10 5 Fog/Mist BKN010 OVC014 48 46     93% 43   30.15 30.15      
Mar 25 01:53 NNW 8 6 Fog/Mist OVC011 49 46     90% 45   30.15 30.15      
Mar 25 01:36 NNW 8 7 Cloudy BKN013 OVC020 49 46     90% 45   30.14        
Mar 25 01:23 NNW 10 7 Cloudy SCT012 BKN018 OVC036 49 46     90% 45   30.14        
Mar 25 00:53 N 11 7 Cloudy BKN014 OVC036 49 46     90% 44   30.13 30.14      
Mar 25 00:11 N 8 6 Fog/Mist BKN014 OVC038 50 47     89%     30.11        
Mar 24 23:53 N 9 6 Fog/Mist FEW015 OVC038 50 47     89%     30.12 30.12      
Mar 24 22:53 NNW 10 8 Cloudy OVC046 50 47     89%     30.1 30.11      
Mar 24 21:53 NNW 6 8 Partly Cloudy SCT046 49 46     90% 46   30.09 30.11      
Mar 24 21:05 NNW 10 10 Partly Cloudy SCT021 50 45     83%     30.07        
Mar 24 20:53 NNW 9 10 Mostly Cloudy BKN021 51 46     83%     30.07 30.08      
Mar 24 19:53 NNW 13 10 Cloudy OVC045 54 46     74%     30.05 30.06      
Mar 24 18:53 NW 13 10 Cloudy BKN030 BKN036 OVC047 57 46     67%     30.03 30.04      
Mar 24 17:53 NW 9 10 Mostly Cloudy BKN042 58 44     60%     30.01 30.01      
Mar 24 16:53 NW 8 10 Cloudy OVC034 56 45     67%     30 30.01      
Mar 24 15:53 NW 16 10 Cloudy OVC031 57 45     64%     30 30      
Mar 24 14:53 WNW 14 10 Cloudy OVC033 57 44     62%     29.99 29.99      
Mar 24 14:43 WNW 13 10 Cloudy OVC033 58 44     60%     29.99        
Mar 24 13:53 WNW 11 10 Cloudy OVC028 55 45     69%     29.99 30      
Mar 24 12:53 W 9 10 Cloudy OVC020 53 45     74%       30      
Mar 24 11:53 WNW 11 9 Cloudy OVC015 52 45     77%     29.99 30      
Mar 24 11:29 WNW 14 8 Cloudy OVC015 50 45     83%     29.99        
Mar 24 10:53 W 9 8 Cloudy OVC014 50 45     83%     29.99 30      
Mar 24 09:53 W 10 7 Clear   47 44     90% 42   29.99 30      
Mar 24 09:36 WNW 11 7 Mostly Cloudy BKN014 47 44     90% 42   29.98        
Mar 24 08:53 W 14 7 Clear CLR 49 45     86% 44   29.97 29.98      
Mar 24 07:53 WSW 8 5 Fog/Mist CLR 47 46     97% 43   29.96 29.96      
Mar 24 06:53 WSW 8 4 Fog/Mist CLR 47 47     100% 43   29.95 29.96     0
Mar 24 06:21 WSW 11 4 Fog/Mist SCT005 SCT010 49 49     100% 44   29.95        
Mar 24 05:53 SW 9 3 Fog/Mist SCT005 BKN009 49 49     100% 45   29.95 29.95      
Mar 24 05:42 SW 10 3 Fog/Mist SCT004 BKN009 OVC013 49 49     100% 45   29.95        
Mar 24 05:35 SW 9 3 Fog/Mist SCT003 OVC011 49 49     100% 45   29.95        
Mar 24 05:20 SW 9 3 Fog/Mist BKN003 OVC013 49 49     100% 45   29.95        
Mar 24 05:06 SW 10 2.5 Fog/Mist OVC003 49 49     100% 45   29.95        
Mar 24 04:53 SSW 9 1.75 Fog/Mist OVC003 48 48     100% 44   29.94 29.94      
Mar 24 04:46 SW 7 2 Fog/Mist OVC003 48 48     100% 45   29.93        
Mar 24 04:36 SSW 7 2.5 Fog/Mist BKN004 48 48     100% 45   29.94        
Mar 24 04:03 SE 8 3 Fog/Mist BKN004 BKN011 48 48     100% 44   29.92        
Mar 24 03:53 SSE 9 2.5 Fog/Mist BKN004 BKN011 OVC100 49 49     100% 45   29.93 29.93 0 0  
Mar 24 03:40 SSE 8 2 Light Rain and Fog/Mist BKN005 BKN020 OVC100 49 49     100% 45   29.94   0    
Mar 24 03:32 SSE 8 1.25 Heavy Rain and Fog/Mist BKN005 BKN023 OVC049 49 49     100% 45   29.95   0    
Mar 24 03:25 SSW 9 1.5 Light Rain and Fog/Mist OVC005 49 49     100% 45   29.97   0    
Mar 24 03:17 SSW 6 2 Fog/Mist OVC007 49 49     100% 46   29.97        
Mar 24 02:53 SW 6 5 Fog/Mist OVC007 50 49     96%     29.97 29.97      
Mar 24 02:25 S 9 6 Fog/Mist OVC009 50 49     96%     29.94        
Mar 24 02:10 S 16 7 Cloudy BKN010 OVC015 50 48     93%     29.94        
Mar 24 01:53 SSE 16 7 Cloudy OVC017 49 48     97% 43   29.93 29.94      
Mar 24 01:37 SSE 15 6 Fog/Mist BKN017 OVC090 49 48     97% 43   29.94        
Mar 24 00:53 SSE 16 6 Fog/Mist FEW019 SCT100 49 48     97% 43   29.94 29.95      
Mar 24 00:24 SSE 18 7 Partly Cloudy FEW010 SCT100 49 48     97% 43   29.95        
Mar 23 23:53 SSE 18 7 Cloudy SCT010 OVC023 50 48     93%     29.96 29.96      
Mar 23 22:53 SSE 17 8 Cloudy OVC011 50 49     96%     29.96 29.97      
Mar 23 21:53 SSE 17 6 Fog/Mist OVC006 51 50     96%     29.98 29.98      
Mar 23 20:53 SSE 18 7 Cloudy OVC007 51 49     92%     29.97 29.98      
Mar 23 20:28 SSE 17 8 Cloudy OVC009 51 49     92%     29.97        
Mar 23 20:03 SSE 18 9 Cloudy OVC013 52 48     86%     29.97        
Mar 23 19:53 SSE 14 9 Cloudy OVC015 52 48     86%     29.97 29.98      
Mar 23 18:53 SSE 10 9 Cloudy OVC019 53 47     80%     29.98 29.98      
Mar 23 17:53 SSE 20 9 Cloudy and Windy OVC022 54 47     77%     29.97 29.98      
Mar 23 16:53 SSE 16 9 Cloudy OVC022 56 47     72%     29.97 29.97      
Mar 23 16:05 S 22 9 Cloudy and Windy BKN024 OVC070 56 47     72%     29.98        
Mar 23 15:53 S 15 9 Cloudy SCT024 OVC070 58 47     67%     29.97 29.98      
Mar 23 14:53 S 20 9 Mostly Cloudy and Windy FEW028 BKN085 57 46     67%     29.98 29.98      
May 15 08:14 Calm 10 Cloudy FEW017 OVC036 64 62     93%     30        
May 15 05:53 W 3 10 Mostly Cloudy BKN046 62 61     96%     29.94 29.93      
May 15 01:53 Calm 10 Light Rain SCT050 SCT070 BKN095 64 61     90%     29.94 29.91 0    
May 14 18:32   1.75 Rain and Fog/Mist FEW050 BKN060 OVC090 69 65     87%     29.82   0    
May 13 13:53 S 18 10 Clear CLR 87 69     55%   91 29.91 29.88      
May 13 06:53 S 14 10 Clear CLR 67 63     87%     29.94 29.91      
May 12 13:53 S 18 10 Cloudy OVC048 82 65     56%   84 29.85 29.82      
May 12 02:53 S 17 10 Clear CLR 72 61     68%   72 29.8 29.77      
Jun 12 07:53   10 Clear CLR 72 67     84%   73 29.87 29.83      
Jun 12 01:53 S 16 10 Clear CLR 73 66     79%   74 29.85 29.81      
Jun 11 11:53   10 Clear CLR 84 67     57%   87 29.81 29.77      
Jun 10 23:53 SSE 17 10 Clear CLR 74 67     79%   75 29.79 29.76      
Jun 10 21:53 SSE 17 10 Clear   77 69     77%   78 29.76 29.73      
Jun 10 12:53 S 22 10 Mostly Clear and Windy FEW028 82 69     65%   85 29.77 29.74      
Jun 10 09:20 S 22 10 Partly Cloudy and Windy SCT018 73 64     73%   73 29.8        
Jun 10 07:53 S 21 10 Mostly Cloudy and Windy BKN022 68 62     81%     29.81 29.78      
Jun 08 21:53 S 7 10 Clear CLR 65 55     70%     29.91 29.89      
Jun 08 18:53 SSE 6 10 Clear CLR 78 51     39%   77 29.92 29.9      
Jun 08 09:53 S 6 10 Clear CLR 73 50     44%   72 30.07 30.05      
Jun 08 07:53 Calm 10 Clear CLR 60 56     86%     30.07 30.05      
Jun 06 02:53 E 6 10 Clear CLR 68 62     81%     29.93 29.89